"Pseudo-MPEC" for ZTB64AF

Created 2018 Oct 12 22:18:24 UT using Find_Orb

Click here for an explanation of pseudo-MPECs

 
 Astrometry: 
     ZTB64AF  C2018 10 01[KAstrometry4]jNs0\fSCAQ.d^mwrDU1CQXLOD.UJB8nJe%,QX)F52
     ZTB64AF  C2018 10 01sd87_5?W3Ni0ZG\/EjpgWkBCxt[G@s8B2M;j:j3JJ4-3YwR)cH0_F52
     ZTB64AF  C2018 10 10.27268 01 36 32.27 +26 46 28.2          21.6 GVNEOCPG96
     ZTB64AF  C2018 10 10.27783 01 36 31.72 +26 46 26.4          21.2 GVNEOCPG96
     ZTB64AF  C2018 10 10.28300 01 36 31.20 +26 46 24.0          21.8 GVNEOCPG96
     ZTB64AF  C2018 10 10.28815 01 36 30.70 +26 46 21.6          20.8 GVNEOCPG96
     ZTB64AF  C2018 10 10kb3GCZgqMd)%s;I`?stLa.$97BV_,;QnOR8c@c6^lkc@`3%`U,!cV06
     ZTB64AF  C2018 10 100:,J:mfEaowSXqIUc:s)T,cYFr?H[)66gP]-ODLR4xH7S1+Ln_22V06
     ZTB64AF  C2018 10 10s3*8[@BQV2r`o%5m[;EJ9naGYmMN,:`%MDrbd:9@2ZukIhMehQX\V06
     ZTB64AF  C2018 10 108Yo_-wFG]%N(w6FkOgq;!F-K54jWemW\bqC`=DwBrYt.e7G7SH]:V06
     ZTB64AF KC2018 10 10ML(q)GtvX0_O-yFQvredacted;CIVq16\H]sU_1I3]Q*gxXcWB`OK88
     ZTB64AF KC2018 10 10!ax*).!:D7=[eL@vv-3'lJ7mtQvv8#Nv`6QU4CLobx5^twKiL\9DK88
     ZTB64AF KC2018 10 10M`X]nK:v!2S/FP[;8Z+P.(!dq'FdKM%D`bl1i2V!?foG=a[7j^mTK88
     ZTB64AF  C2018 10 11/tUt\SxB;jSqYf'5_m7Uo.pPe.tI!OYO^-O@`'cUrp+6-@vUW+J@H01
     ZTB64AF  C2018 10 11!T+cO.$AnNw\h%ywQp#\`1#\f4Aj.CD9,sHKQCsmrp*:O)8Soc:@H01
     ZTB64AF  C2018 10 11PF.r6=;[0!.2`VS-(J7BSu4ZN*whd=se%k!B`6-;y?v9uOFWy8T-H01
     ZTB64AF  C2018 10 113hgaL*k5#V:H17.D#!=y:mO:J(R$5emVseeMst1d/ht$6`;xb9U=H01
     ZTB64AF KC2018 10 11VUWI^Ktf$xVCEfJsa[7JI2N9LCk4\GQ9b`36ki65h#_;ASBD?K8kL01
     ZTB64AF KC2018 10 11n)%+P0x,r:l_+MQN=fptK2ll?5k8:)).2bmcrEoD:)yCZ':Fw5rcL01
     ZTB64AF KC2018 10 11'(pc@0l#sYefv7fE5;s%^S,ST]hGIx)@b$*T'#gGDc80/N6JGocTL01
     ZTB64AF KC2018 10 12U.8^h_-gC'OG2]N5%uYh4CwYH=(eK]'Zve5riXTr%f0T!5)5#qXUH21
     ZTB64AF KC2018 10 12glW*NBV2IjbhFw:j0nb54LCj;'%sx7N@]_$2'Zx*$`LK]f;m5W]IH21
     ZTB64AF KC2018 10 12^Z9yarL:0ZG9^Y@s1$Qq*V/qqV,)9/AtI@5AmO+G/SaHf[uNEOCPH21

Station data:
(F52) Pan-STARRS 2, Haleakala  (N20.707384 W156.255910)  US/Hawaii.
(G96) Mt. Lemmon Survey  (N32.442754 W110.788720)  US/Arizona.  Observers B.
   M. Africano, E. J. Christensen, D. C. Fuls, A. R. Gibbs, A. D. Grauer, J.
   A. Johnson, R. A. Kowalski, S. M. Larson, G. J. Leonard, R. L. Seaman, F.
   C. Shelly. 1.5-m reflector + 10K CCD.
(H01) Magdalena Ridge Observatory, Socorro  (N33.984833 W107.189333)  US/New
   Mexico.  Observers W. H. Ryan, E. V. Ryan. Measurer W. H. Ryan. 2.4-m
   f/8.9 reflector + CCD.
(H21) Astronomical Research Observatory, Westfield  (N39.483057 W87.968270)
   US/Illinois. 0.76-m f/3.0 astrograph + CCD.
(K88) GINOP-KHK, Piszkéstető  (N47.917622 E19.893600)  Hungary.  Observer K.
   Sárneczky. 0.60-m Schmidt + CCD.
(L01) Višnjan Observatory, Tičan  (N45.290900 E13.749300)  Croatia.  Observer
   K. Korlević. 1.0-m f/2.9 reflector + CCD.
(V06) Catalina Sky Survey-Kuiper  (N32.416847 W110.732550)  US/Arizona.
   Observers B. M. Africano, E. J. Christensen, D. C. Fuls, A. R. Gibbs, A.
   D. Grauer, J. A. Johnson, R. A. Kowalski, S. M. Larson, G. J. Leonard, R.
   L. Seaman, F. C. Shelly. 1.55-m reflector + CCD.

Orbital elements:  ZTB64AF
   Perihelion 2018 Jun 1.552208 +/- 0.248 TT = 13:15:10 (JD 2458271.052208)
Epoch 2018 Oct 12.0 TT = JDT 2458403.5   Earth MOID: 0.1386   AutoNEOCP
M  40.94680 +/- 0.10                (J2000 ecliptic)
n   0.30915432 +/- 0.000573         Peri.  336.60594 +/- 0.07
a   2.16613653 +/- 0.00268          Node   313.58173 +/- 0.042
e   0.4706422 +/- 0.000773          Incl.    7.24662 +/- 0.008
P   3.19                   H 20.0   G  0.15   U  7.7  
q 1.14666111 +/- 0.000258    Q 3.18561196 +/- 0.00559
From 23 observations 2018 Oct. 1-12; mean residual 0".21
Residuals in arcseconds: 
181001 F52  .05+  .04-    181010 V06  .14+  .06-    181011 H01  .12+  .13-    
181001 F52  .05-  .04+    181010 V06  .15-  .17-    181011 L01  .57-  .07+    
181010 G96  .65+  .21-    181010 K88  .32-  .40+    181011 L01  .08+  .32-    
181010 G96  .03+  .18+    181010 K88  .06-  .29+    181011 L01  .11-  .18-    
181010 G96  .17-  .02-    181010 K88  .05-  .40+    181012 H21  .02+  .19+    
181010 G96  .11-  .22-    181011 H01  .02+  .07-    181012 H21  .09+  .08+    
181010 V06  .02+  .05-    181011 H01  .15+  .10-    181012 H21  .34+  .08-    
181010 V06  .12-  .04+    181011 H01  .08+  .15-    

Ephemerides (geocentric):
Date (UTC) HH   RA              Dec         delta   r     elong  mag " sig PA
---- -- -- --  -------------   -----------  ------ ------ -----  --- ---- ---
2018 10 12 22  01 32 27.046   +26 26 12.51  .77620 1.7487 160.4 21.3  .26 166
2018 10 12 23  01 32 23.226   +26 25 52.23  .77639 1.7490 160.5 21.3  .27 165
2018 10 13 00  01 32 19.407   +26 25 31.91  .77657 1.7493 160.5 21.3  .28 165
2018 10 13 01  01 32 15.590   +26 25 11.56  .77676 1.7495 160.5 21.3  .29 165
2018 10 13 02  01 32 11.774   +26 24 51.18  .77695 1.7498 160.6 21.3  .29 165
2018 10 13 03  01 32 07.960   +26 24 30.76  .77714 1.7500 160.6 21.3  .30 165
2018 10 13 04  01 32 04.148   +26 24 10.32  .77733 1.7503 160.6 21.3  .31 165
2018 10 13 05  01 32 00.337   +26 23 49.84  .77752 1.7505 160.7 21.3  .32 164
2018 10 13 06  01 31 56.527   +26 23 29.33  .77770 1.7508 160.7 21.3  .32 164
2018 10 13 07  01 31 52.719   +26 23 08.79  .77789 1.7511 160.7 21.3  .33 164
2018 10 13 08  01 31 48.913   +26 22 48.21  .77808 1.7513 160.8 21.3  .34 164
2018 10 13 09  01 31 45.108   +26 22 27.60  .77828 1.7516 160.8 21.3  .35 164
2018 10 13 10  01 31 41.305   +26 22 06.97  .77847 1.7518 160.8 21.3  .35 164
2018 10 13 11  01 31 37.503   +26 21 46.30  .77866 1.7521 160.9 21.3  .36 163
2018 10 13 12  01 31 33.703   +26 21 25.60  .77885 1.7524 160.9 21.3  .37 163
2018 10 13 13  01 31 29.905   +26 21 04.86  .77904 1.7526 160.9 21.3  .38 163
2018 10 13 14  01 31 26.109   +26 20 44.10  .77923 1.7529 161.0 21.3  .39 163
2018 10 13 15  01 31 22.314   +26 20 23.31  .77943 1.7531 161.0 21.3  .39 163
2018 10 13 16  01 31 18.520   +26 20 02.48  .77962 1.7534 161.0 21.3  .40 163
2018 10 13 17  01 31 14.729   +26 19 41.62  .77981 1.7537 161.1 21.3  .41 163
2018 10 13 18  01 31 10.939   +26 19 20.73  .78001 1.7539 161.1 21.3  .42 162
2018 10 13 19  01 31 07.150   +26 18 59.81  .78020 1.7542 161.1 21.3  .43 162
2018 10 13 20  01 31 03.364   +26 18 38.86  .78040 1.7544 161.2 21.3  .43 162
2018 10 13 21  01 30 59.579   +26 18 17.88  .78059 1.7547 161.2 21.3  .44 162
2018 10 13 22  01 30 55.796   +26 17 56.87  .78079 1.7549 161.2 21.3  .45 162
2018 10 13 23  01 30 52.015   +26 17 35.83  .78098 1.7552 161.3 21.3  .46 162
2018 10 14 00  01 30 48.235   +26 17 14.76  .78118 1.7555 161.3 21.3  .47 162
2018 10 14 01  01 30 44.457   +26 16 53.65  .78138 1.7557 161.3 21.3  .48 162
2018 10 14 02  01 30 40.681   +26 16 32.52  .78157 1.7560 161.3 21.3  .48 161
2018 10 14 03  01 30 36.907   +26 16 11.36  .78177 1.7562 161.4 21.3  .49 161
2018 10 14 04  01 30 33.134   +26 15 50.16  .78197 1.7565 161.4 21.3  .50 161
2018 10 14 05  01 30 29.364   +26 15 28.94  .78217 1.7568 161.4 21.3  .51 161
2018 10 14 06  01 30 25.595   +26 15 07.68  .78236 1.7570 161.5 21.3  .52 161
2018 10 14 07  01 30 21.828   +26 14 46.40  .78256 1.7573 161.5 21.3  .53 161
2018 10 14 08  01 30 18.063   +26 14 25.09  .78276 1.7575 161.5 21.3  .54 161
2018 10 14 09  01 30 14.299   +26 14 03.74  .78296 1.7578 161.6 21.3  .55 161
2018 10 14 10  01 30 10.538   +26 13 42.37  .78316 1.7581 161.6 21.3  .55 160
2018 10 14 11  01 30 06.778   +26 13 20.97  .78336 1.7583 161.6 21.3  .56 160
2018 10 14 12  01 30 03.020   +26 12 59.53  .78356 1.7586 161.7 21.3  .57 160
2018 10 14 13  01 29 59.265   +26 12 38.07  .78377 1.7588 161.7 21.3  .58 160
2018 10 14 14  01 29 55.511   +26 12 16.58  .78397 1.7591 161.7 21.3  .59 160
2018 10 14 15  01 29 51.759   +26 11 55.06  .78417 1.7593 161.7 21.3  .60 160
2018 10 14 16  01 29 48.008   +26 11 33.51  .78437 1.7596 161.8 21.3  .61 160
2018 10 14 17  01 29 44.260   +26 11 11.93  .78457 1.7599 161.8 21.3  .62 160
2018 10 14 18  01 29 40.514   +26 10 50.32  .78478 1.7601 161.8 21.3  .63 160
2018 10 14 19  01 29 36.770   +26 10 28.69  .78498 1.7604 161.9 21.3  .64 159
2018 10 14 20  01 29 33.027   +26 10 07.02  .78518 1.7606 161.9 21.3  .64 159
2018 10 14 21  01 29 29.287   +26 09 45.33  .78539 1.7609 161.9 21.3  .65 159